�������l�o���
Date,Time,MP-1(��Sv/h),MP-2(��Sv/h),MP-3(��Sv/h),MP-4(��Sv/h),MP-5(��Sv/h),MP-6(��Sv/h),MP-7(��Sv/h),MP-8(��Sv/h),����,����(m/s),���J
2018/03/30,00:00,0.877,1.457,0.906,1.701,1.155,0.487,0.853,0.818,�k��,8.5,��
2018/03/30,00:10,0.875,1.455,0.906,1.700,1.155,0.488,0.853,0.817,�k��,10.0,��
2018/03/30,00:20,0.875,1.455,0.904,1.698,1.156,0.488,0.852,0.818,�k��,11.3,��
2018/03/30,00:30,0.875,1.458,0.905,1.699,1.158,0.489,0.851,0.821,�k��,11.3,��
2018/03/30,00:40,0.875,1.457,0.906,1.698,1.156,0.487,0.852,0.821,�k��,12.2,��
2018/03/30,00:50,0.875,1.455,0.906,1.696,1.155,0.487,0.852,0.822,�k��,10.5,��
2018/03/30,01:00,0.875,1.455,0.906,1.699,1.156,0.488,0.851,0.819,�k��,11.7,��
2018/03/30,01:10,0.874,1.457,0.903,1.698,1.155,0.487,0.851,0.822,�k�k��,11.3,��
2018/03/30,01:20,0.873,1.457,0.903,1.701,1.156,0.485,0.849,0.819,�k��,10.5,��
2018/03/30,01:30,0.872,1.457,0.904,1.698,1.153,0.487,0.851,0.821,�k�k��,10.7,��
2018/03/30,01:40,0.873,1.456,0.903,1.699,1.157,0.485,0.850,0.819,�k�k��,10.0,��
2018/03/30,01:50,0.871,1.453,0.907,1.695,1.156,0.486,0.851,0.819,�k��,12.1,��
2018/03/30,02:00,0.873,1.456,0.902,1.698,1.155,0.485,0.850,0.820,�k�k��,8.6,��
2018/03/30,02:10,0.873,1.456,0.904,1.696,1.153,0.486,0.852,0.819,�k�k��,8.7,��
2018/03/30,02:20,0.875,1.456,0.905,1.699,1.155,0.486,0.853,0.820,�k��,10.0,��
2018/03/30,02:30,0.872,1.453,0.903,1.698,1.154,0.484,0.852,0.819,�k��,7.6,��
2018/03/30,02:40,0.872,1.454,0.906,1.698,1.154,0.484,0.852,0.819,�k��,8.0,��
2018/03/30,02:50,0.873,1.457,0.904,1.699,1.154,0.485,0.852,0.818,�k�k��,8.2,��
2018/03/30,03:00,0.874,1.455,0.902,1.700,1.155,0.485,0.852,0.820,�k�k��,9.7,��
2018/03/30,03:10,0.873,1.452,0.902,1.696,1.156,0.486,0.852,0.820,�k�k��,11.0,��
2018/03/30,03:20,0.872,1.454,0.905,1.699,1.156,0.486,0.853,0.819,�k�k��,11.0,��
2018/03/30,03:30,0.871,1.456,0.903,1.701,1.156,0.484,0.855,0.819,�k�k��,8.4,��
2018/03/30,03:40,0.870,1.455,0.904,1.699,1.154,0.483,0.852,0.819,�k�k��,10.5,��
2018/03/30,03:50,0.870,1.455,0.902,1.699,1.155,0.484,0.852,0.819,�k��,14.7,��
2018/03/30,04:00,0.869,1.455,0.905,1.700,1.156,0.485,0.853,0.819,�k��,14.7,��
2018/03/30,04:10,0.870,1.456,0.902,1.700,1.155,0.485,0.852,0.819,�k��,14.1,��
2018/03/30,04:20,0.870,1.455,0.904,1.701,1.153,0.483,0.852,0.819,�k��,12.7,��
2018/03/30,04:30,0.870,1.453,0.903,1.700,1.154,0.484,0.851,0.818,�k��,10.8,��
2018/03/30,04:40,0.871,1.451,0.905,1.700,1.153,0.485,0.851,0.818,�k��,8.6,��
2018/03/30,04:50,0.871,1.453,0.902,1.701,1.153,0.482,0.853,0.819,�k��,7.7,��
2018/03/30,05:00,0.870,1.456,0.902,1.699,1.153,0.483,0.853,0.819,�k�k��,6.4,��
2018/03/30,05:10,0.872,1.455,0.901,1.700,1.155,0.484,0.853,0.818,�k�k��,5.9,��
2018/03/30,05:20,0.870,1.454,0.901,1.702,1.153,0.483,0.854,0.819,�k�k��,5.6,��
2018/03/30,05:30,0.868,1.453,0.903,1.701,1.153,0.484,0.853,0.820,�k��,4.9,��
2018/03/30,05:40,0.868,1.452,0.900,1.697,1.154,0.483,0.854,0.820,�k��,12.7,��
2018/03/30,05:50,0.871,1.455,0.902,1.694,1.155,0.482,0.854,0.818,�k�k��,12.0,��
2018/03/30,06:00,0.870,1.451,0.903,1.697,1.154,0.485,0.853,0.820,�k�k��,9.8,��
2018/03/30,06:10,0.870,1.455,0.903,1.699,1.155,0.482,0.852,0.818,�k�k��,8.5,��
2018/03/30,06:20,0.869,1.455,0.904,1.699,1.154,0.484,0.852,0.818,�k��,8.9,��
2018/03/30,06:30,0.870,1.455,0.901,1.701,1.155,0.483,0.854,0.816,�k�k��,6.5,��
2018/03/30,06:40,0.869,1.454,0.903,1.699,1.153,0.484,0.853,0.820,�k�k��,5.6,��
2018/03/30,06:50,0.872,1.455,0.900,1.698,1.155,0.482,0.853,0.818,�k��,5.7,��
2018/03/30,07:00,0.869,1.455,0.902,1.700,1.153,0.484,0.853,0.819,�k�k��,5.4,��
2018/03/30,07:10,0.868,1.455,0.902,1.697,1.152,0.483,0.854,0.818,�k�k��,6.3,��
2018/03/30,07:20,0.871,1.452,0.902,1.699,1.153,0.483,0.853,0.818,�k�k��,6.9,��
2018/03/30,07:30,0.869,1.455,0.903,1.701,1.155,0.485,0.855,0.819,�k�k��,6.3,��
2018/03/30,07:40,0.872,1.459,0.901,1.700,1.152,0.482,0.855,0.819,�k�k��,6.2,��
2018/03/30,07:50,0.874,1.454,0.901,1.699,1.153,0.484,0.855,0.821,�k�k��,5.1,��
2018/03/30,08:00,0.875,1.453,0.900,1.700,1.157,0.483,0.854,0.818,�k,6.2,��
2018/03/30,08:10,0.874,1.453,0.903,1.701,1.155,0.480,0.855,0.818,�k�k��,6.1,��
2018/03/30,08:20,0.873,1.453,0.902,1.703,1.153,0.481,0.852,0.818,�k�k��,6.7,��
2018/03/30,08:30,0.875,1.454,0.901,1.701,1.159,0.481,0.853,0.819,�k�k��,6.9,��
2018/03/30,08:40,0.874,1.452,0.900,1.703,1.155,0.480,0.850,0.820,�k,8.8,��
2018/03/30,08:50,0.872,1.452,0.903,1.699,1.155,0.480,0.851,0.818,�k,6.3,��
2018/03/30,09:00,0.873,1.452,0.902,1.703,1.155,0.479,0.849,0.819,�k�k��,5.1,��
2018/03/30,09:10,0.875,1.451,0.902,1.703,1.156,0.481,0.850,0.817,�k�k��,6.5,��
2018/03/30,09:20,0.876,1.453,0.902,1.702,1.157,0.482,0.852,0.819,�k�k��,8.1,��
2018/03/30,09:30,0.876,1.454,0.902,1.704,1.157,0.480,0.852,0.816,�k�k��,8.5,��
2018/03/30,09:40,0.875,1.452,0.901,1.703,1.157,0.478,0.852,0.817,�k�k��,9.6,��
2018/03/30,09:50,0.876,1.453,0.902,1.705,1.157,0.480,0.851,0.816,�k�k��,7.4,��
2018/03/30,10:00,0.876,1.453,0.902,1.704,1.158,0.481,0.852,0.816,�k�k��,6.4,��
2018/03/30,10:10,0.877,1.452,0.903,1.708,1.157,0.481,0.853,0.816,�k�k��,6.3,��
2018/03/30,10:20,0.876,1.454,0.903,1.702,1.157,0.482,0.851,0.817,�k��,6.9,��
2018/03/30,10:30,0.875,1.452,0.906,1.706,1.159,0.483,0.851,0.817,�k��,6.2,��
2018/03/30,10:40,0.875,1.454,0.904,1.705,1.156,0.481,0.851,0.817,�k�k��,4.6,��
2018/03/30,10:50,0.875,1.455,0.905,1.705,1.158,0.481,0.851,0.817,�k�k��,6.6,��
2018/03/30,11:00,0.876,1.455,0.903,1.702,1.158,0.482,0.850,0.818,�k�k��,5.9,��
2018/03/30,11:10,0.874,1.456,0.905,1.704,1.157,0.480,0.850,0.816,�k�k��,5.4,��
2018/03/30,11:20,0.877,1.454,0.904,1.705,1.154,0.482,0.853,0.818,�k�k��,5.7,��
2018/03/30,11:30,0.878,1.458,0.904,1.706,1.158,0.482,0.852,0.817,�k�k��,4.0,��
2018/03/30,11:40,0.878,1.457,0.904,1.706,1.157,0.482,0.852,0.816,�k��,5.5,��
2018/03/30,11:50,0.876,1.456,0.904,1.704,1.156,0.481,0.854,0.818,�k�k��,6.8,��
2018/03/30,12:00,0.876,1.459,0.904,1.706,1.160,0.482,0.852,0.815,�k�k��,5.4,��
2018/03/30,12:10,0.876,1.457,0.904,1.707,1.157,0.483,0.853,0.817,�k��,6.4,��
2018/03/30,12:20,0.875,1.457,0.902,1.703,1.159,0.483,0.853,0.816,�k�k��,6.3,��
2018/03/30,12:30,0.873,1.460,0.904,1.706,1.160,0.484,0.851,0.816,�k�k��,6.7,��
2018/03/30,12:40,0.874,1.457,0.906,1.707,1.162,0.485,0.853,0.816,�k�k��,6.6,��
2018/03/30,12:50,0.875,1.458,0.904,1.706,1.160,0.485,0.851,0.816,�k��,7.4,��
2018/03/30,13:00,0.874,1.458,0.905,1.707,1.159,0.485,0.852,0.818,�k�k��,5.7,��
2018/03/30,13:10,0.874,1.459,0.903,1.706,1.161,0.486,0.852,0.818,�k�k��,7.2,��
2018/03/30,13:20,0.877,1.458,0.902,1.706,1.162,0.484,0.853,0.817,�k�k��,7.8,��
2018/03/30,13:30,0.877,1.458,0.903,1.709,1.161,0.484,0.853,0.817,�k�k��,7.5,��
2018/03/30,13:40,0.874,1.459,0.902,1.710,1.159,0.485,0.855,0.815,�k��,8.1,��
2018/03/30,13:50,0.877,1.458,0.900,1.708,1.162,0.484,0.853,0.818,�k��,6.6,��
2018/03/30,14:00,0.874,1.460,0.906,1.707,1.162,0.484,0.853,0.816,�k��,9.2,��
2018/03/30,14:10,0.873,1.459,0.904,1.709,1.161,0.483,0.853,0.818,�k��,8.1,��
2018/03/30,14:20,0.873,1.458,0.902,1.709,1.163,0.485,0.853,0.817,�k��,8.5,��
2018/03/30,14:30,0.872,1.461,0.903,1.706,1.161,0.484,0.853,0.817,�k��,7.2,��
2018/03/30,14:40,0.875,1.458,0.902,1.709,1.163,0.484,0.854,0.817,�k��,8.9,��
2018/03/30,14:50,0.872,1.459,0.905,1.709,1.160,0.483,0.853,0.816,�k��,8.0,��
2018/03/30,15:00,0.874,1.461,0.905,1.709,1.160,0.485,0.854,0.818,�k��,7.7,��
2018/03/30,15:10,0.875,1.464,0.905,1.706,1.163,0.485,0.854,0.818,�k�k��,6.1,��
2018/03/30,15:20,0.871,1.461,0.905,1.709,1.166,0.485,0.853,0.818,�k�k��,6.7,��
2018/03/30,15:30,0.874,1.460,0.905,1.708,1.161,0.484,0.854,0.816,�k�k��,8.0,��
2018/03/30,15:40,0.875,1.463,0.907,1.710,1.162,0.486,0.854,0.818,�k��,8.8,��
2018/03/30,15:50,0.876,1.462,0.903,1.710,1.161,0.486,0.854,0.818,�k�k��,8.2,��
2018/03/30,16:00,0.876,1.459,0.906,1.708,1.163,0.487,0.854,0.817,�k�k��,7.3,��
2018/03/30,16:10,0.875,1.463,0.906,1.708,1.162,0.487,0.855,0.817,�k�k��,7.9,��
2018/03/30,16:20,0.873,1.465,0.906,1.708,1.160,0.486,0.854,0.818,�k�k��,7.6,��
2018/03/30,16:30,0.874,1.460,0.903,1.708,1.161,0.486,0.854,0.816,�k�k��,8.6,��
2018/03/30,16:40,0.875,1.461,0.905,1.707,1.163,0.486,0.853,0.818,�k�k��,9.6,��
2018/03/30,16:50,0.872,1.462,0.907,1.704,1.160,0.487,0.854,0.818,�k�k��,8.5,��
2018/03/30,17:00,0.877,1.462,0.907,1.707,1.162,0.485,0.853,0.820,�k�k��,8.9,��
2018/03/30,17:10,0.874,1.465,0.906,1.707,1.163,0.485,0.852,0.820,�k�k��,7.7,��
2018/03/30,17:20,0.874,1.465,0.907,1.707,1.160,0.485,0.853,0.820,�k�k��,7.6,��
2018/03/30,17:30,0.875,1.460,0.906,1.705,1.161,0.484,0.852,0.821,�k�k��,6.2,��
2018/03/30,17:40,0.874,1.462,0.907,1.708,1.162,0.484,0.854,0.822,�k�k��,4.9,��
2018/03/30,17:50,0.876,1.463,0.908,1.706,1.163,0.486,0.852,0.821,�k��,6.6,��
2018/03/30,18:00,0.876,1.462,0.907,1.707,1.161,0.486,0.854,0.820,�k��,5.4,��
2018/03/30,18:10,0.877,1.463,0.908,1.706,1.161,0.485,0.855,0.819,�k��,4.7,��
2018/03/30,18:20,0.876,1.463,0.906,1.706,1.163,0.486,0.854,0.818,���k��,5.3,��
2018/03/30,18:30,0.876,1.463,0.908,1.708,1.163,0.485,0.854,0.819,�k��,6.0,��
2018/03/30,18:40,0.876,1.462,0.905,1.705,1.163,0.483,0.856,0.819,���k��,6.0,��
2018/03/30,18:50,0.875,1.461,0.908,1.710,1.163,0.484,0.856,0.819,���k��,6.1,��
2018/03/30,19:00,0.873,1.462,0.903,1.708,1.164,0.485,0.855,0.819,�k��,6.9,��
2018/03/30,19:10,0.874,1.463,0.905,1.708,1.163,0.483,0.855,0.819,�k��,5.8,��
2018/03/30,19:20,0.872,1.462,0.905,1.707,1.164,0.483,0.855,0.819,�k��,5.0,��
2018/03/30,19:30,0.872,1.461,0.907,1.708,1.162,0.484,0.855,0.819,�k��,6.6,��
2018/03/30,19:40,0.874,1.463,0.907,1.707,1.162,0.483,0.855,0.819,�k��,7.7,��
2018/03/30,19:50,0.872,1.459,0.906,1.706,1.165,0.484,0.855,0.820,���k��,6.2,��
2018/03/30,20:00,0.872,1.459,0.905,1.709,1.162,0.485,0.856,0.819,�k��,6.4,��
2018/03/30,20:10,0.872,1.461,0.906,1.706,1.163,0.484,0.855,0.821,�k��,8.0,��
2018/03/30,20:20,0.871,1.462,0.907,1.707,1.162,0.483,0.854,0.820,�k��,7.4,��
2018/03/30,20:30,0.871,1.463,0.905,1.706,1.163,0.483,0.854,0.819,�k,5.1,��
2018/03/30,20:40,0.872,1.462,0.905,1.707,1.163,0.484,0.853,0.818,�k�k��,6.4,��
2018/03/30,20:50,0.872,1.461,0.904,1.708,1.164,0.484,0.854,0.820,�k�k��,7.9,��
2018/03/30,21:00,0.872,1.463,0.906,1.707,1.161,0.484,0.854,0.819,�k�k��,7.7,��
2018/03/30,21:10,0.871,1.459,0.904,1.712,1.162,0.485,0.852,0.819,�k,6.2,��
2018/03/30,21:20,0.872,1.464,0.906,1.709,1.163,0.483,0.855,0.820,�k�k��,6.1,��
2018/03/30,21:30,0.873,1.464,0.905,1.707,1.160,0.484,0.854,0.819,�k�k��,6.7,��
2018/03/30,21:40,0.871,1.463,0.908,1.707,1.162,0.484,0.854,0.820,�k�k��,6.9,��
2018/03/30,21:50,0.869,1.462,0.903,1.711,1.161,0.483,0.854,0.819,�k�k��,6.0,��
2018/03/30,22:00,0.873,1.462,0.905,1.706,1.161,0.484,0.853,0.818,�k�k��,5.4,��
2018/03/30,22:10,0.870,1.459,0.905,1.706,1.159,0.484,0.853,0.819,�k��,4.9,��
2018/03/30,22:20,0.873,1.460,0.905,1.705,1.160,0.485,0.852,0.820,�k��,4.2,��
2018/03/30,22:30,0.870,1.461,0.904,1.706,1.161,0.482,0.851,0.819,�k��,5.4,��
2018/03/30,22:40,0.871,1.460,0.905,1.706,1.161,0.483,0.854,0.819,�k��,5.3,��
2018/03/30,22:50,0.873,1.460,0.905,1.707,1.165,0.483,0.852,0.821,�k�k��,4.5,��
2018/03/30,23:00,0.870,1.460,0.905,1.708,1.163,0.484,0.852,0.819,�k��,5.3,��
2018/03/30,23:10,0.869,1.460,0.904,1.704,1.161,0.481,0.852,0.820,�k��,4.5,��
2018/03/30,23:20,0.871,1.458,0.902,1.705,1.160,0.482,0.853,0.818,�k��,4.8,��
2018/03/30,23:30,0.870,1.459,0.903,1.706,1.164,0.483,0.851,0.818,�k��,5.0,��
2018/03/30,23:40,0.872,1.458,0.903,1.706,1.162,0.482,0.852,0.818,���k��,3.3,��
2018/03/30,23:50,0.868,1.460,0.904,1.706,1.162,0.482,0.851,0.819,��,2.3,��
